User: anonymous   Login
Location: Habighorst
(52.7089°N, 10.2278°E)
Time: 22:50:10
(UTC+00:00)
Language:

COSMO-SKYMED 1 - Orbit

View from above orbital plane
View from above orbital plane
View from above satellite
View from above satellite

Ground track
Ground track

The orbit is defined by the following mean orbital elements,

1 31598U          26074.61511655 +.00000000 +00000-0 +37113-3 0 00006
2 31598  97.8883 265.6951 0001622  93.5786 266.5620 14.96589596    03
Epoch (UTC): 15 March 2026 14:45:46
Eccentricity: 0.0001622
inclination: 97.8883°
perigee height: 576 km
apogee height: 579 km
right ascension of ascending node: 265.6951°
argument of perigee: 93.5786°
revolutions per day: 14.96589596
mean anomaly at epoch: 266.5620°

The dashed part of the orbit path shows where the satellite is in the earth's shadow,  

DLR